User: anonymous
Location: Mentone
(34.5413°N, 85.5351°W)
Time: 13:27:20
(UTC-05:00)
Language:

SL-8 R/B - Orbit

View from above orbital plane
View from above orbital plane
View from above satellite
View from above satellite

Ground track
Ground track

The orbit data is extracted from the following two-line orbital elements,

1 33066U 08031G   14207.97893874 -.00000023  00000-0  29080-4 0  8425
2 33066 048.4448 008.9086 0007765 330.4448 176.5952 14.68832619327447
Epoch (UTC): 26 July 2014 23:29:40
Eccentricity: 0.0007765
inclination: 48.4448°
perigee height: 659 km
apogee height: 670 km
right ascension of ascending node: 8.9086°
argument of perigee: 330.4448°
revolutions per day: 14.68832619
mean anomaly at epoch: 176.5952°
orbit number at epoch: 32744

The dashed part of the orbit path shows where the satellite is in the earth's shadow,  

DLR